User: anonymous   Login
Location: Unspecified
(0.0000°N, 0.0000°E)
Time: 13:49:41
(UTC+00:00)
Language:

Picosat 5 - Orbit

View from above orbital plane
View from above orbital plane
View from above satellite
View from above satellite

Ground track
Ground track

The orbit data is extracted from the following two-line orbital elements,

1 26093U 00004L   17114.76072238 +.00000729 +00000-0 +19908-3 0  9991
2 26093 100.1776 210.2339 0030748 198.8504 161.1548 14.51046940907052
Epoch (UTC): 24 April 2017 18:15:26
Eccentricity: 0.0030748
inclination: 100.1776°
perigee height: 700 km
apogee height: 744 km
right ascension of ascending node: 210.2339°
argument of perigee: 198.8504°
revolutions per day: 14.51046940
mean anomaly at epoch: 161.1548°
orbit number at epoch: 90705

The dashed part of the orbit path shows where the satellite is in the earth's shadow,  

DLR